Wellsville, NY

2:53 AM EDT on March 25, 2017 (GMT -0400)
Wellsville Municipal-Tarantine

Weather History for KELZ - October, 2012

Change the Weather History Date:

Sunday, October 28, 2012

  Actual Average (KDSV) Record (KDSV)
Temperature  
Mean Temperature 40 °F -  
Max Temperature 42 °F 59 °F 80 °F (2014)
Min Temperature 39 °F 37 °F 20 °F (1976)
Degree Days  
Heating Degree Days 24    
Moisture  
Dew Point 38 °F    
Average Humidity 92    
Maximum Humidity 96    
Minimum Humidity 81    
Precipitation  
Precipitation 0.28 in - - ()
Sea Level Pressure  
Sea Level Pressure 29.96 in    
Wind  
Wind Speed 7 mph (North)    
Max Wind Speed 13 mph    
Max Gust Speed 21 mph    
Visibility 4 miles    
Events Fog , Rain    
Averages and records for this station are not official NWS values.
T = Trace of Precipitation, MM = Missing Value Source: NWS Daily Summary

Daily Weather History Graph

Daily Weather History Graph

Search for Another Location

Airport or City:

Trip Planner

Search our weather history database for the weather conditions in past years. The results will help you decide how hot, cold, wet, or windy it might be!

Date:

Astronomy

Oct. 28, 2012 Rise Set
Actual Time 7:40 AM EDT 6:10 PM EDT
Civil Twilight 7:11 AM EDT 6:39 PM EDT
Nautical Twilight 6:38 AM EDT 7:11 PM EDT
Astronomical Twilight 6:06 AM EDT 7:44 PM EDT
Moon 5:27 PM EDT (10/28) 6:31 AM EDT (10/28)
Length of Visible Light 11h 27m
Length of Day
10h 29m
Waxing Gibbous, 99% of the Moon is Illuminated
Oct 28
Waxing Gibbous
Oct 29
Full
Nov 6
Last Quarter
Nov 13
New
Nov 20
First Quarter

Hourly Weather History & Observations

Time (EDT) Temp. Windchill Dew Point Humidity Pressure Visibility Wind Dir Wind Speed Gust Speed Precip Events Conditions
12:56 AM 42.1 °F 38.4 °F 39.9 °F 92% 30.05 in 1.8 mi North 5.8 mph - 0.01 in Rain Light Rain
1:11 AM 42.8 °F 39.3 °F 39.2 °F 87% 30.02 in 2.5 mi North 5.8 mph - 0.00 in Rain Light Rain
1:33 AM 42.8 °F 38.0 °F 39.2 °F 87% 30.02 in 5.0 mi North 8.1 mph - 0.01 in Rain Light Rain
1:56 AM 42.1 °F 37.1 °F 39.9 °F 92% 30.04 in 3.0 mi North 8.1 mph - 0.02 in Rain Light Rain
2:36 AM 42.8 °F 40.1 °F 39.2 °F 87% 30.02 in 9.0 mi Variable 4.6 mph - 0.00 in   Overcast
3:17 AM 42.8 °F 39.3 °F 39.2 °F 87% 30.01 in 2.5 mi NNE 5.8 mph - N/A   Overcast
3:25 AM 41.0 °F 38.0 °F 39.2 °F 93% 30.01 in 3.0 mi North 4.6 mph - N/A   Overcast
3:44 AM 41.0 °F 38.0 °F 39.2 °F 93% 30.01 in 2.0 mi North 4.6 mph - N/A   Overcast
3:56 AM 41.0 °F 38.0 °F 39.0 °F 93% 30.02 in 4.0 mi NNE 4.6 mph - N/A   Overcast
4:06 AM 41.0 °F 37.1 °F 39.2 °F 93% 29.99 in 2.0 mi North 5.8 mph - N/A   Overcast
4:16 AM 41.0 °F 37.1 °F 39.2 °F 93% 30.00 in 7.0 mi North 5.8 mph - N/A   Overcast
4:43 AM 41.0 °F 38.0 °F 39.2 °F 93% 29.99 in 1.8 mi North 4.6 mph - N/A   Overcast
4:56 AM 41.0 °F 38.0 °F 39.0 °F 93% 30.01 in 1.5 mi North 4.6 mph - N/A   Overcast
5:14 AM 41.0 °F 37.1 °F 39.2 °F 93% 30.00 in 0.8 mi North 5.8 mph - N/A   Mist
5:56 AM 41.0 °F 38.0 °F 39.0 °F 93% 30.04 in 0.8 mi Variable 4.6 mph - N/A   Mist
6:56 AM 39.9 °F 36.7 °F 37.9 °F 93% 30.03 in 1.0 mi North 4.6 mph - 0.01 in   Mist
7:08 AM 39.2 °F 33.6 °F 37.4 °F 93% 29.99 in 0.8 mi North 8.1 mph - N/A   Mist
7:29 AM 39.2 °F 34.2 °F 37.4 °F 93% 30.00 in 1.2 mi North 6.9 mph - N/A   Overcast
7:44 AM 39.2 °F 34.2 °F 37.4 °F 93% 30.00 in 0.8 mi North 6.9 mph - N/A   Mist
7:56 AM 39.9 °F 36.7 °F 37.9 °F 93% 30.04 in 0.8 mi North 4.6 mph - N/A   Mist
8:31 AM 39.2 °F 35.0 °F 37.4 °F 93% 30.00 in 2.0 mi Variable 5.8 mph - N/A   Overcast
8:40 AM 39.2 °F 35.0 °F 37.4 °F 93% 30.00 in 3.0 mi Variable 5.8 mph - N/A   Overcast
8:56 AM 39.0 °F 34.0 °F 37.9 °F 96% 30.04 in 1.2 mi NNW 6.9 mph - 0.00 in Rain Light Rain
9:23 AM 39.2 °F 35.9 °F 37.4 °F 93% 30.00 in 0.5 mi Variable 4.6 mph - 0.00 in Fog , Rain Light Rain
9:34 AM 39.2 °F 34.2 °F 37.4 °F 93% 30.00 in 0.2 mi Variable 6.9 mph - 0.00 in Fog , Rain Light Rain
9:48 AM 39.2 °F 37.0 °F 37.4 °F 93% 29.99 in 0.5 mi North 3.5 mph - 0.00 in Fog , Rain Light Rain
9:56 AM 39.9 °F 35.8 °F 37.9 °F 93% 30.03 in 2.0 mi North 5.8 mph - 0.01 in Rain Light Rain
10:05 AM 39.2 °F 35.9 °F 37.4 °F 93% 29.99 in 4.0 mi Variable 4.6 mph - 0.00 in Rain Light Rain
10:23 AM 39.2 °F 35.0 °F 37.4 °F 93% 29.98 in 1.8 mi Variable 5.8 mph - 0.00 in   Overcast
10:36 AM 39.2 °F 35.0 °F 37.4 °F 93% 29.98 in 0.8 mi North 5.8 mph - 0.00 in Rain Light Rain
10:53 AM 39.2 °F 33.6 °F 37.4 °F 93% 29.97 in 1.2 mi North 8.1 mph - 0.00 in Rain Light Rain
10:56 AM 39.9 °F 35.8 °F 37.9 °F 93% 30.01 in 1.0 mi Variable 5.8 mph - 0.00 in Rain Light Rain
11:12 AM 39.2 °F 34.2 °F 37.4 °F 93% 29.97 in 3.0 mi North 6.9 mph - 0.00 in Rain Light Rain
11:56 AM 41.0 °F 37.1 °F 39.0 °F 93% 30.01 in 2.5 mi NNE 5.8 mph - 0.01 in Rain Light Rain
12:19 PM 41.0 °F 36.4 °F 39.2 °F 93% 29.96 in 1.5 mi North 6.9 mph - 0.01 in Rain Light Rain
12:42 PM 41.0 °F 36.4 °F 39.2 °F 93% 29.95 in 3.0 mi North 6.9 mph - 0.02 in Rain Light Rain
12:56 PM 41.0 °F 36.4 °F 39.0 °F 93% 29.99 in 10.0 mi North 6.9 mph - 0.03 in Rain Light Rain
1:06 PM 41.0 °F 35.8 °F 39.2 °F 93% 29.94 in 10.0 mi NNE 8.1 mph - 0.01 in Rain Light Rain
1:22 PM 41.0 °F 35.8 °F 39.2 °F 93% 29.94 in 4.0 mi NNE 8.1 mph - 0.03 in Rain Light Rain
1:38 PM 41.0 °F 35.2 °F 39.2 °F 93% 29.93 in 2.5 mi NNE 9.2 mph - 0.05 in Rain Light Rain
1:49 PM 41.0 °F 35.8 °F 39.2 °F 93% 29.93 in 3.0 mi NNE 8.1 mph - 0.06 in Rain Rain
1:56 PM 41.0 °F 34.7 °F 39.0 °F 93% 29.96 in 2.0 mi NNE 10.4 mph - 0.08 in Rain Rain
2:03 PM 41.0 °F 35.8 °F 39.2 °F 93% 29.92 in 0.8 mi NNE 8.1 mph - 0.01 in Rain Rain
2:27 PM 41.0 °F 34.7 °F 39.2 °F 93% 29.90 in 2.0 mi North 10.4 mph - 0.04 in Rain Light Rain
2:35 PM 41.0 °F 34.3 °F 39.2 °F 93% 29.89 in 9.0 mi NNW 11.5 mph 17.3 mph 0.04 in Rain Light Rain
2:56 PM 42.1 °F 35.2 °F 39.0 °F 89% 29.92 in 10.0 mi North 12.7 mph 18.4 mph 0.05 in Rain Light Rain
3:11 PM 41.0 °F 35.8 °F 39.2 °F 93% 29.90 in 10.0 mi NE 8.1 mph - N/A   Overcast
3:35 PM 42.8 °F 37.5 °F 37.4 °F 81% 29.89 in 10.0 mi NNE 9.2 mph - N/A   Overcast
3:56 PM 42.1 °F 37.7 °F 39.0 °F 89% 29.93 in 10.0 mi North 6.9 mph - N/A   Overcast
4:32 PM 42.8 °F 38.0 °F 39.2 °F 87% 29.89 in 10.0 mi NNE 8.1 mph - N/A   Overcast
4:56 PM 41.0 °F 34.7 °F 39.0 °F 93% 29.91 in 10.0 mi North 10.4 mph 18.4 mph N/A   Overcast
5:17 PM 41.0 °F 35.2 °F 37.4 °F 87% 29.86 in 3.0 mi North 9.2 mph 20.7 mph N/A   Overcast
5:56 PM 41.0 °F 35.2 °F 37.9 °F 89% 29.94 in 10.0 mi NE 9.2 mph - N/A   Overcast
6:22 PM 41.0 °F 35.8 °F 37.4 °F 87% 29.90 in 10.0 mi NNE 8.1 mph - N/A   Overcast
6:56 PM 41.0 °F 34.3 °F 37.9 °F 89% 29.94 in 10.0 mi NNE 11.5 mph - N/A   Overcast
7:41 PM 39.2 °F 35.0 °F 37.4 °F 93% 29.88 in 3.0 mi Variable 5.8 mph - N/A   Overcast
7:46 PM 39.2 °F 34.2 °F 37.4 °F 93% 29.88 in 1.8 mi North 6.9 mph 17.3 mph N/A   Overcast
7:56 PM 39.9 °F 33.9 °F 37.9 °F 93% 29.92 in 1.0 mi North 9.2 mph - N/A   Overcast
8:07 PM 39.2 °F 35.0 °F 37.4 °F 93% 29.88 in 2.0 mi NNE 5.8 mph - N/A   Overcast
8:14 PM 39.2 °F 34.2 °F 37.4 °F 93% 29.88 in 0.8 mi NNE 6.9 mph - N/A   Mist
8:56 PM 39.9 °F 34.5 °F 37.9 °F 93% 29.93 in 1.2 mi NNE 8.1 mph - N/A   Overcast
9:18 PM 39.2 °F 33.6 °F 37.4 °F 93% 29.87 in 0.8 mi North 8.1 mph - N/A   Mist
10:18 PM 39.2 °F 35.0 °F 37.4 °F 93% 29.85 in 1.2 mi Variable 5.8 mph - 0.00 in Rain Light Rain
10:56 PM 39.9 °F 35.8 °F 37.9 °F 93% 29.88 in 1.2 mi North 5.8 mph - 0.02 in Rain Light Rain
11:12 PM 39.2 °F 35.0 °F 37.4 °F 93% 29.84 in 3.0 mi North 5.8 mph - 0.01 in Rain Light Rain
11:56 PM 39.9 °F 34.5 °F 37.9 °F 93% 29.86 in 9.0 mi North 8.1 mph - 0.04 in Rain Light Rain